CW3007 Weather Reports


Display with metric or nautical units.
time (UTC)temp
F
wind
direction
speed
MPH
gust
MPH
rain 1hr
in
rain 24hr
in
rain mn
in
humidity
%
barometer
mb
20260510083631 72 166 12.0 12.0 0.00 0.00 0.00 80 1009.0
20260510082631 72 163 7.0 8.0 0.00 0.00 0.00 80 1009.1
20260510081631 72 148 3.0 9.0 0.00 0.00 0.00 80 1009.2
20260510080632 72 152 5.0 9.0 0.00 0.00 0.00 80 1009.1
20260510075631 72 164 9.0 10.0 0.00 0.00 0.00 79 1009.3
20260510074632 72 187 3.0 8.0 0.00 0.00 0.00 79 1009.4
20260510073631 73 196 4.0 9.0 0.00 0.00 0.00 78 1009.3
20260510072632 73 171 2.0 9.0 0.00 0.00 0.00 78 1009.3
20260510070631 74 214 3.0 9.0 0.00 0.00 0.00 76 1009.3
20260510064631 74 136 4.0 12.0 0.00 0.00 0.00 75 1009.2
20260510062631 74 153 3.0 8.0 0.00 0.00 0.00 74 1009.2
20260510061632 75 149 3.0 10.0 0.00 0.00 0.00 74 1009.2
20260510055632 75 139 4.0 9.0 0.00 0.00 0.00 73 1009.2
20260510054632 75 132 3.0 9.0 0.00 0.00 0.00 74 1009.1
20260510053631 75 138 3.0 9.0 0.00 0.00 0.00 75 1009.0
20260510052631 74 151 2.0 8.0 0.00 0.00 0.00 77 1009.0
20260510051631 74 121 2.0 5.0 0.00 0.00 0.00 78 1009.2
20260510050631 74 142 3.0 5.0 0.00 0.00 0.00 80 1009.1
20260510045631 74 148 1.0 3.0 0.00 0.00 0.00 81 1009.1
20260510044631 74 120 2.0 4.0 0.00 0.00 0.00 81 1009.2
20260510043631 75 169 1.0 5.0 0.00 0.00 0.00 80 1009.2
20260510042631 75 124 3.0 5.0 0.00 0.00 0.00 80 1009.2
20260510041631 76 137 2.0 3.0 0.00 0.00 0.00 80 1009.1
20260510035631 76 141 5.0 5.0 0.00 0.00 0.00 79 1009.1
20260510034631 77 117 4.0 4.0 0.00 0.00 0.00 78 1009.0
20260510033631 77 127 1.0 4.0 0.00 0.00 0.00 78 1008.9
20260510032631 78 121 1.0 4.0 0.00 0.00 0.00 77 1008.9
20260510031631 78 126 2.0 3.0 0.00 0.00 0.00 77 1008.8
20260510030631 78 142 1.0 4.0 0.00 0.00 0.00 76 1008.6
20260510025631 79 146 1.0 3.0 0.00 0.00 0.00 75 1008.4
20260510024631 79 132 2.0 6.0 0.00 0.00 0.00 75 1008.4
20260510023631 80 130 1.0 6.0 0.00 0.00 0.00 74 1008.1
20260510022631 80 117 2.0 5.0 0.00 0.00 0.00 72 1007.9
20260510020631 81 170 1.0 5.0 0.00 0.00 0.00 69 1007.6
20260510015631 81 144 1.0 5.0 0.00 0.00 0.00 68 1007.3
20260510014631 81 153 1.0 4.0 0.00 0.00 0.00 68 1007.3
20260510013631 82 132 0.0 3.0 0.00 0.00 0.00 67 1007.3
20260510011631 83 155 1.0 5.0 0.00 0.00 0.00 66 1007.1
20260510010631 83 155 0.0 4.0 0.00 0.00 0.00 66 1007.2
20260510005631 84 106 3.0 4.0 0.00 0.00 0.00 67 1007.0
20260510004631 84 116 0.0 4.0 0.00 0.00 0.00 66 1006.9
20260510003631 85 123 0.0 8.0 0.00 0.00 0.00 65 1006.9
20260510002631 86 140 4.0 8.0 0.00 0.00 0.00 62 1006.7
20260510001631 86 150 3.0 7.0 0.00 0.00 0.00 60 1006.7
20260510000631 86 125 0.0 6.0 0.00 0.00 0.00 60 1006.7
20260509235631 87 115 3.0 6.0 0.00 0.00 0.00 60 1006.5
20260509234631 87 115 4.0 7.0 0.00 0.00 0.00 60 1006.5
20260509232631 87 118 6.0 7.0 0.00 0.00 0.00 61 1006.3
20260509231631 88 119 3.0 6.0 0.00 0.00 0.00 61 1006.2
20260509224631 88 110 7.0 9.0 0.00 0.00 0.00 59 1006.4
20260509223631 89 96 0.0 5.0 0.00 0.00 0.00 55 1006.3
20260509222631 90 117 0.0 6.0 0.00 0.00 0.00 52 1006.3
20260509221631 90 111 1.0 7.0 0.00 0.00 0.00 54 1006.2
20260509220631 90 188 0.0 4.0 0.00 0.00 0.00 51 1006.3
20260509215631 89 175 0.0 6.0 0.00 0.00 0.00 53 1006.3
20260509214631 89 113 0.0 7.0 0.00 0.00 0.00 54 1006.4
20260509213631 89 100 3.0 4.0 0.00 0.00 0.00 55 1006.6
20260509212631 89 138 2.0 6.0 0.00 0.00 0.00 55 1006.7
20260509210631 88 105 2.0 6.0 0.00 0.00 0.00 55 1007.0
20260509204631 88 45 2.0 4.0 0.00 0.00 0.00 55 1007.3
20260509203631 87 258 1.0 6.0 0.00 0.00 0.00 56 1007.4
20260509202631 86 164 2.0 11.0 0.00 0.00 0.00 56 1007.5
20260509201631 85 141 3.0 10.0 0.00 0.00 0.00 57 1007.9
20260509200631 84 179 6.0 17.0 0.00 0.00 0.00 55 1008.2
20260509195631 88 184 2.0 5.0 0.00 0.00 0.00 53 1008.3
20260509194631 88 60 3.0 8.0 0.00 0.00 0.00 55 1008.5
20260509193631 88 20 4.0 8.0 0.00 0.00 0.00 58 1008.4
20260509192631 87 317 6.0 11.0 0.00 0.00 0.00 59 1008.3
20260509191631 87 296 2.0 9.0 0.00 0.00 0.00 61 1008.1
20260509190631 86 337 4.0 9.0 0.00 0.00 0.00 65 1008.2
20260509184631 85 323 3.0 9.0 0.00 0.00 0.00 67 1008.7
20260509182631 84 315 4.0 9.0 0.00 0.00 0.00 68 1008.9
20260509181631 86 306 4.0 11.0 0.00 0.00 0.00 67 1009.0
20260509180631 86 313 4.0 10.0 0.00 0.00 0.00 70 1009.1
20260509175631 86 304 2.0 10.0 0.00 0.00 0.00 71 1009.1
20260509172631 84 248 0.0 5.0 0.00 0.00 0.00 71 1009.5
20260509171631 83 255 2.0 5.0 0.00 0.00 0.00 71 1009.5
20260509170631 84 227 3.0 7.0 0.00 0.00 0.00 72 1009.6
20260509165631 83 193 0.0 7.0 0.00 0.00 0.00 72 1009.8
20260509164631 82 254 5.0 7.0 0.00 0.00 0.00 74 1009.5
20260509163631 82 188 0.0 7.0 0.00 0.00 0.00 75 1009.6
20260509161631 81 217 4.0 7.0 0.00 0.00 0.00 75 1009.9
20260509160631 81 171 7.0 8.0 0.00 0.00 0.00 77 1009.8
20260509155631 80 222 3.0 9.0 0.00 0.00 0.00 79 1009.8
20260509153631 80 121 7.0 13.0 0.00 0.00 0.00 80 1009.6
20260509152631 80 217 6.0 16.0 0.00 0.00 0.00 81 1009.0
20260509151631 80 183 9.0 15.0 0.00 0.00 0.00 81 1008.9
20260509150631 80 195 8.0 14.0 0.00 0.00 0.00 80 1009.0
20260509145630 80 153 11.0 16.0 0.00 0.00 0.00 81 1008.9
20260509144631 80 186 7.0 14.0 0.00 0.00 0.00 83 1008.8
20260509143631 79 171 13.0 13.0 0.00 0.00 0.00 84 1008.7
20260509142630 78 207 3.0 11.0 0.00 0.00 0.00 86 1008.5
20260509140631 76 188 6.0 11.0 0.00 0.00 0.00 89 1008.4
20260509135630 76 181 3.0 12.0 0.00 0.00 0.00 90 1008.4
20260509134631 75 180 4.0 11.0 0.00 0.00 0.00 91 1008.2
20260509133631 74 171 6.0 13.0 0.00 0.00 0.00 90 1008.4
20260509132630 74 185 7.0 12.0 0.00 0.00 0.00 90 1008.6
20260509131631 73 180 8.0 11.0 0.00 0.00 0.00 90 1008.5
20260509130630 73 169 6.0 11.0 0.00 0.00 0.00 90 1008.9
20260509125631 73 199 3.0 7.0 0.00 0.00 0.00 90 1008.8
20260509124630 73 197 4.0 5.0 0.00 0.00 0.00 90 1008.8
20260509123631 73 182 2.0 3.0 0.00 0.00 0.00 90 1008.9
20260509121631 73 26 1.0 2.0 0.00 0.00 0.00 90 1008.9
20260509120630 72 336 0.0 4.0 0.00 0.00 0.00 90 1008.9
20260509115630 72 340 0.0 2.0 0.00 0.00 0.00 90 1009.1
20260509114631 73 236 2.0 3.0 0.00 0.00 0.00 89 1009.3
20260509113630 73 154 0.0 3.0 0.00 0.00 0.00 89 1009.5
20260509112630 73 171 2.0 2.0 0.00 0.00 0.00 89 1009.9
20260509105631 73 306 0.0 1.0 0.00 0.00 0.00 90 1010.5
20260509103630 73 5 0.0 1.0 0.00 0.00 0.00 90 1010.5
20260509102630 73 5 0.0 0.0 0.00 0.00 0.00 89 1010.5
20260509101630 73 5 0.0 4.0 0.00 0.00 0.00 89 1010.2
20260509100630 73 43 3.0 4.0 0.00 0.00 0.00 89 1010.0
20260509095630 73 17 3.0 4.0 0.00 0.00 0.00 89 1009.8
20260509094631 73 350 2.0 4.0 0.00 0.00 0.00 89 1009.7
20260509093630 73 285 0.0 0.0 0.00 0.00 0.00 89 1009.3
20260509092630 73 220 0.0 3.0 0.00 0.00 0.00 89 1008.9
20260509091630 73 161 0.0 0.0 0.00 0.00 0.00 89 1008.6
20260509085630 73 162 0.0 0.0 0.00 0.00 0.00 89 1008.8